Wind_Speed
22 21 21 19 19 20 16 16 15 19 17 15 14 13 12 11 13 15 21 20 26 13 6 7 12 16 11 9 16 14 2 5 7 7 5 22 4 7 3 8 6 3 8 20 14
23 23 23 21 21 19 19 17 16 15 20 17 14 12 10 11 13 20 22 11 18 20 17 12 11 13 11 10 7 7 6 6 4 8 5 9 5 8 4 4 2 5 13 18 15
23 24 24 23 22 22 19 20 19 15 19 18 14 10 8 7 9 19 13 22 20 18 17 16 14 14 14 15 10 5 5 5 15 20 7 5 8 8 5 1 10 9 11 12 16
24 24 24 24 23 23 20 19 22 18 15 19 15 9 9 10 6 4 5 25 22 21 15 20 16 9 8 7 14 5 7 19 19 26 11 3 8 8 4 5 11 10 11 12 20
26 25 25 24 25 26 22 20 20 18 15 20 14 10 11 13 12 3 3 18 19 19 21 19 17 13 7 7 15 6 6 20 20 20 10 9 6 7 14 16 13 18 15 11 11
26 26 26 26 26 26 21 20 17 18 16 20 15 12 14 9 10 8 6 12 21 19 20 21 11 16 10 6 8 7 6 5 9 15 13 8 8 8 4 19 25 25 28 22 17
26 26 26 24 25 22 20 20 18 21 16 19 18 16 14 19 11 11 10 6 5 16 21 23 10 13 6 2 0 4 2 6 8 11 6 12 7 8 22 26 29 33 32 35 30
30 26 25 25 23 21 19 19 19 21 17 15 21 17 9 15 12 13 14 12 12 10 15 19 16 8 3 1 1 3 3 1 7 11 14 12 13 5 20 21 28 37 38 40 38
27 25 23 24 21 21 20 18 16 20 20 17 24 16 8 12 24 15 17 14 11 11 9 10 16 4 2 4 2 1 3 6 7 10 6 12 3 14 23 27 18 29 34 38 40
24 24 22 23 20 21 19 19 20 14 15 14 12 10 11 12 24 20 19 17 14 14 12 7 4 3 2 3 5 5 4 3 6 5 5 6 8 8 20 21 25 26 24 25 31
24 22 22 23 24 25 18 15 3 4 12 5 11 5 9 15 19 21 26 16 18 15 4 5 3 5 8 7 5 5 4 4 5 6 3 8 10 10 18 23 24 27 31 37 37
24 21 23 21 23 22 19 9 8 2 3 21 7 12 20 26 13 24 22 12 13 5 5 3 3 5 7 10 9 6 4 5 7 4 5 12 20 17 18 22 28 34 30 37 40
24 23 21 19 22 19 12 14 9 9 2 11 11 26 23 11 7 26 23 13 10 8 6 5 1 8 4 3 4 2 2 3 5 7 5 9 10 8 8 21 30 34 36 34 40
26 22 19 19 12 24 18 4 11 6 2 8 8 12 17 12 5 24 23 16 4 10 8 3 4 3 4 3 3 1 4 2 3 4 3 6 7 6 9 9 6 21 28 34 37
25 20 20 20 22 19 5 4 10 5 1 9 8 23 20 2 22 15 23 1 7 7 6 7 4 6 3 3 5 3 5 5 4 4 5 3 3 8 7 5 8 6 19 26 25
22 23 26 27 19 10 3 12 11 2 4 4 8 11 7 18 4 22 7 3 4 2 6 4 4 3 3 3 3 6 5 4 3 3 3 8 7 5 3 4 1 1 9 6 18
26 26 16 8 8 8 17 17 4 1 4 6 8 12 13 7 7 12 8 4 4 5 0 3 3 2 3 4 4 5 5 3 0 2 6 2 4 7 9 11 9 8 14 7 4
31 15 8 1 5 19 25 1 4 4 2 5 12 15 5 11 9 6 8 4 3 2 4 4 4 8 4 4 5 4 5 4 4 3 4 5 7 6 11 17 15 10 4 5 10
14 10 9 7 15 23 7 1 1 3 4 7 13 8 5 4 7 6 4 5 4 4 4 4 2 6 6 2 5 3 3 5 1 2 3 5 7 9 7 8 9 9 13 18 16
8 12 11 10 10 19 2 3 3 5 10 13 4 4 6 6 6 5 8 8 5 8 2 1 4 5 5 3 4 5 5 2 2 2 5 6 5 8 4 5 7 9 15 23 18
6 5 8 7 11 2 2 3 3 10 20 1 5 6 9 6 5 4 11 10 7 10 5 2 3 2 3 5 7 3 3 3 2 4 4 4 5 5 6 1 4 4 11 19 27
7 3 5 2 2 1 2 3 6 5 9 2 4 8 9 6 6 3 7 1 15 13 7 3 3 3 7 5 8 5 5 5 4 4 4 3 6 9 12 6 18 24 32 25 23
5 5 4 6 2 3 3 4 3 6 2 2 3 4 15 6 5 3 5 5 12 6 10 6 2 1 2 5 2 5 7 8 5 2 7 2 7 4 10 20 26 28 31 29 29
3 2 3 5 5 1 3 4 2 8 6 6 12 15 10 5 5 6 4 3 5 5 10 11 4 5 5 3 3 3 6 9 11 3 8 14 21 24 20 20 23 23 22 20 26
4 2 2 1 1 3 1 1 5 5 7 6 10 10 9 5 8 5 6 3 4 3 4 4 3 3 4 6 4 6 7 9 11 18 9 24 22 22 21 20 20 9 17 18 22
3 2 5 3 4 2 2 2 5 4 5 6 10 11 10 4 1 10 6 4 3 2 3 2 1 2 5 8 8 6 11 12 12 16 17 23 26 15 17 27 15 12 16 19 25
8 5 2 5 1 1 1 2 1 2 12 10 7 6 9 4 10 11 9 9 9 7 6 5 3 2 4 4 6 5 7 12 7 5 6 7 10 14 17 12 12 15 18 19 17
Wind_Direction
341 339 327 326 296 283 295 288 285 266 271 285 288 276 273 266 253 232 236 224 199 169 163 207 201 201 195 234 220 217 184 212 219 234 252 292 340 302 144 165 136 118 129 156 160
336 334 332 323 323 283 276 294 272 278 261 273 280 274 267 258 256 251 248 228 206 216 229 200 194 191 210 222 221 186 200 230 222 238 271 276 6 318 176 176 223 213 139 157 166
331 329 326 327 321 320 303 279 276 273 254 260 270 264 249 236 277 265 250 189 183 200 212 198 199 201 212 228 226 197 190 223 270 264 292 299 308 337 7 70 228 226 195 197 199
325 323 323 320 320 314 311 293 278 270 253 249 257 240 222 196 221 308 225 187 197 193 203 198 215 227 183 214 237 240 227 238 260 267 283 277 306 326 315 269 309 278 260 294 212
320 321 317 313 311 311 300 300 278 273 243 239 243 218 206 211 238 277 144 182 194 195 193 193 217 227 171 198 241 221 246 253 256 272 288 278 275 269 280 273 264 270 277 278 251
319 316 315 311 309 305 298 303 273 261 241 230 227 206 205 231 222 237 182 194 211 202 197 197 206 202 214 243 205 200 221 267 284 303 320 266 257 263 260 263 266 268 267 260 252
321 316 314 310 312 303 297 296 295 258 232 230 208 206 217 217 197 185 181 152 208 203 208 203 193 190 206 254 265 98 44 336 301 289 264 311 273 230 251 262 262 262 259 264 260
314 314 317 316 317 310 303 298 277 272 237 245 185 195 235 224 193 204 182 172 174 207 222 212 198 167 138 175 99 79 60 330 247 239 242 197 255 241 249 249 251 257 256 256 260
316 317 317 317 313 311 308 304 291 277 246 198 170 176 229 211 205 201 182 170 160 166 178 171 175 121 89 132 48 229 225 222 297 248 209 185 239 239 250 250 265 250 251 251 252
322 321 321 317 315 315 310 304 295 262 263 171 158 165 229 201 196 195 178 157 164 146 136 142 124 100 174 128 192 195 226 246 239 288 201 232 250 261 268 272 272 271 263 248 249
323 323 324 315 321 309 319 320 328 215 208 186 184 211 274 181 179 175 159 165 169 156 144 180 116 193 194 189 239 269 303 279 274 296 280 249 261 255 261 260 263 265 261 259 255
325 320 320 313 322 327 310 278 273 302 288 230 238 205 144 145 138 165 158 150 157 164 126 99 216 204 199 210 229 267 267 293 294 341 5 313 295 283 260 256 244 250 249 251 254
326 324 316 311 319 328 330 255 261 285 42 211 231 193 154 147 152 169 164 150 168 158 145 141 225 211 211 284 198 348 306 288 270 334 350 349 293 266 278 249 247 247 248 248 251
329 326 314 315 328 322 320 278 231 245 256 168 191 199 170 148 114 170 160 140 153 172 163 202 228 115 148 223 139 101 6 72 30 45 260 69 292 291 275 279 252 241 241 242 245
322 320 313 310 303 315 331 209 175 165 322 150 152 154 171 212 134 188 177 189 173 161 131 228 161 166 161 183 139 168 94 66 38 26 6 277 221 279 259 274 267 278 250 243 245
324 322 313 301 290 286 221 159 133 77 244 136 143 161 123 148 106 159 161 168 115 133 139 124 67 105 198 108 84 124 65 45 61 75 295 228 182 281 240 210 122 280 33 243 243
333 333 327 301 249 167 162 148 80 228 298 119 144 141 132 139 116 150 151 130 133 111 183 45 143 135 54 116 93 89 78 9 248 223 235 103 211 250 275 284 267 285 284 213 205
333 335 2 60 159 160 158 239 101 209 210 120 136 123 110 124 143 142 141 142 265 91 110 140 314 165 181 159 168 161 140 158 221 228 283 295 226 254 234 263 298 254 286 268 229
335 49 58 73 134 161 147 2 100 298 154 126 112 132 120 113 127 147 151 159 202 199 135 126 276 140 147 125 114 190 187 170 322 315 43 252 294 307 335 41 48 46 17 359 353
24 64 74 102 132 164 333 14 1 229 121 138 75 163 145 149 124 149 164 187 204 207 189 341 111 146 146 121 209 146 158 85 8 298 278 282 266 240 351 348 15 12 5 353 344
19 69 80 125 139 137 283 9 304 168 154 185 154 140 136 156 138 160 181 160 180 186 168 123 72 35 96 194 184 176 182 212 106 175 216 290 263 241 195 109 30 329 317 316 317
43 60 156 118 52 301 321 314 26 187 264 235 102 115 150 139 144 134 181 178 174 163 184 125 109 170 217 224 187 173 190 189 142 255 245 192 261 276 279 37 333 322 318 301 291
69 56 140 320 32 356 321 290 309 16 350 113 129 95 143 121 140 109 87 14 159 145 159 146 145 63 147 12 106 195 212 202 230 28 232 238 265 228 319 325 316 306 301 292 280
75 87 336 357 66 11 317 351 19 1 32 49 109 118 128 173 132 159 112 48 81 89 159 146 153 174 183 168 128 204 210 198 192 202 267 240 275 286 293 304 303 311 331 327 301
16 41 59 271 285 273 138 17 333 30 4 43 133 151 132 106 103 107 87 83 49 107 78 100 178 273 275 260 235 216 230 227 217 241 242 277 277 286 297 299 295 285 318 300 315
98 30 343 289 149 94 12 290 31 9 11 58 84 65 74 74 34 154 133 139 180 124 122 93 229 37 281 257 235 246 243 235 241 253 248 263 275 285 299 305 318 336 315 284 284
12 29 19 315 1 50 329 177 27 36 23 47 91 82 61 33 67 70 90 146 160 144 169 155 157 91 271 327 338 284 236 214 223 209 205 273 289 305 307 320 15 355 339 311 287
Height
1492 1489 1486 1483 1481 1480 1478 1477 1477 1477 1477 1477 1477 1477 1477 1477 1478 1479 1477 1479 1483 1485 1489 1491 1492 1497 1499 1500 1501 1502 1509 1511 1504 1502 1498 1489 1492 1492 1488 1489 1490 1495 1498 1498 1501
1490 1487 1484 1481 1477 1475 1473 1473 1472 1472 1473 1474 1473 1474 1475 1475 1474 1472 1471 1475 1479 1483 1486 1489 1491 1495 1497 1497 1498 1498 1503 1502 1494 1494 1495 1493 1492 1491 1487 1488 1489 1494 1497 1498 1499
1488 1484 1481 1478 1474 1471 1469 1468 1468 1468 1469 1470 1470 1471 1472 1473 1474 1465 1467 1471 1476 1480 1484 1488 1490 1493 1495 1494 1494 1492 1498 1494 1494 1493 1495 1493 1490 1490 1490 1490 1489 1491 1496 1498 1497
1484 1481 1478 1474 1471 1468 1465 1464 1463 1464 1465 1466 1467 1468 1470 1472 1473 1463 1463 1467 1473 1476 1481 1484 1487 1490 1492 1492 1490 1493 1490 1492 1492 1491 1493 1492 1490 1488 1488 1488 1489 1492 1492 1495 1496
1481 1477 1474 1471 1467 1464 1461 1459 1458 1459 1460 1461 1463 1465 1467 1468 1463 1463 1464 1467 1470 1474 1478 1480 1484 1487 1487 1488 1489 1489 1489 1489 1490 1488 1489 1488 1488 1487 1483 1484 1485 1484 1487 1491 1494
1476 1473 1469 1466 1462 1459 1456 1454 1453 1453 1454 1455 1458 1462 1463 1463 1459 1463 1464 1466 1468 1472 1475 1479 1481 1483 1485 1486 1487 1483 1486 1487 1486 1485 1486 1486 1484 1486 1482 1481 1481 1483 1482 1486 1490
1471 1467 1464 1460 1457 1454 1452 1450 1448 1448 1449 1450 1453 1457 1459 1456 1459 1459 1462 1464 1466 1469 1473 1476 1480 1482 1482 1482 1483 1482 1486 1486 1485 1483 1484 1485 1482 1480 1480 1479 1479 1479 1479 1477 1482
1466 1463 1460 1456 1453 1449 1447 1445 1444 1443 1442 1441 1446 1454 1453 1452 1455 1457 1460 1462 1466 1468 1471 1473 1477 1479 1481 1482 1482 1483 1486 1495 1482 1479 1479 1484 1479 1474 1474 1474 1475 1474 1473 1474 1472
1461 1458 1455 1451 1449 1446 1443 1441 1440 1439 1438 1439 1442 1449 1451 1447 1450 1454 1457 1460 1464 1467 1470 1471 1475 1476 1480 1481 1486 1485 1496 1493 1485 1472 1474 1477 1475 1468 1469 1469 1469 1467 1466 1467 1467
1457 1454 1451 1447 1445 1442 1440 1437 1435 1435 1436 1435 1441 1450 1446 1443 1446 1450 1456 1460 1464 1466 1471 1474 1475 1477 1482 1483 1492 1488 1491 1486 1486 1473 1471 1470 1471 1465 1464 1463 1462 1461 1461 1461 1461
1453 1450 1447 1444 1442 1439 1437 1435 1434 1435 1433 1432 1433 1435 1431 1440 1446 1449 1454 1458 1463 1466 1470 1472 1477 1479 1479 1479 1479 1481 1483 1485 1480 1474 1473 1471 1468 1465 1460 1458 1456 1453 1453 1452 1452
1451 1447 1444 1441 1439 1436 1436 1435 1434 1434 1432 1430 1432 1435 1435 1439 1444 1448 1452 1458 1462 1466 1466 1473 1476 1474 1475 1477 1479 1482 1483 1484 1476 1470 1473 1470 1459 1455 1452 1445 1447 1443 1444 1443 1445
1446 1443 1440 1438 1435 1432 1429 1431 1432 1432 1432 1430 1430 1435 1437 1441 1442 1445 1451 1455 1460 1464 1467 1475 1472 1471 1475 1477 1478 1481 1483 1484 1485 1476 1472 1471 1458 1449 1438 1432 1433 1434 1434 1436 1437
1443 1440 1437 1435 1434 1430 1427 1426 1429 1432 1434 1428 1428 1432 1437 1440 1444 1448 1452 1456 1461 1464 1468 1471 1470 1470 1474 1477 1478 1484 1481 1481 1482 1487 1493 1483 1487 1457 1439 1433 1429 1425 1426 1427 1429
1440 1437 1434 1433 1430 1428 1428 1426 1428 1433 1427 1426 1428 1431 1434 1439 1443 1450 1453 1457 1459 1461 1467 1474 1469 1472 1476 1475 1476 1482 1480 1483 1485 1491 1495 1488 1494 1459 1443 1433 1427 1424 1423 1423 1424
1435 1432 1429 1425 1425 1425 1425 1427 1430 1437 1427 1420 1424 1428 1436 1440 1443 1449 1454 1457 1459 1461 1463 1468 1469 1472 1474 1473 1475 1479 1482 1485 1488 1497 1508 1482 1483 1462 1442 1429 1424 1422 1421 1422 1423
1431 1427 1421 1418 1420 1422 1424 1427 1434 1437 1428 1423 1421 1427 1434 1439 1445 1449 1453 1458 1463 1472 1481 1471 1472 1472 1473 1476 1477 1480 1489 1519 1493 1498 1503 1473 1479 1456 1433 1424 1423 1421 1419 1419 1420
1428 1424 1420 1418 1419 1421 1425 1429 1430 1416 1426 1420 1422 1429 1437 1439 1449 1451 1455 1461 1460 1462 1478 1485 1492 1473 1473 1475 1479 1482 1488 1510 1497 1496 1491 1472 1470 1442 1423 1420 1421 1419 1420 1420 1419
1424 1423 1422 1421 1424 1426 1430 1427 1420 1419 1420 1421 1429 1432 1440 1440 1447 1452 1455 1459 1459 1461 1469 1476 1475 1467 1470 1472 1477 1484 1490 1489 1492 1498 1521 1480 1453 1432 1420 1422 1423 1424 1422 1421 1419
1427 1427 1426 1427 1429 1431 1431 1421 1423 1421 1417 1422 1427 1430 1439 1440 1448 1451 1456 1455 1457 1457 1458 1462 1472 1469 1470 1472 1475 1480 1482 1502 1513 1527 1501 1474 1459 1440 1426 1424 1423 1422 1422 1422 1421
1429 1429 1432 1433 1434 1435 1431 1427 1423 1421 1421 1419 1424 1428 1434 1442 1444 1447 1453 1450 1451 1455 1458 1460 1468 1477 1471 1476 1478 1481 1481 1482 1489 1497 1503 1483 1458 1429 1426 1424 1424 1425 1425 1423 1423
1431 1433 1435 1435 1437 1435 1431 1432 1426 1425 1420 1417 1419 1425 1433 1438 1445 1444 1450 1447 1448 1450 1458 1461 1471 1475 1478 1471 1471 1475 1478 1481 1507 1493 1489 1492 1451 1424 1422 1424 1424 1421 1418 1414 1415
1436 1437 1438 1437 1438 1436 1434 1430 1425 1422 1418 1418 1420 1423 1430 1436 1444 1442 1447 1448 1448 1451 1455 1461 1472 1499 1471 1477 1473 1477 1474 1475 1478 1481 1489 1487 1446 1423 1421 1421 1422 1420 1417 1412 1408
1439 1441 1439 1437 1440 1440 1432 1429 1427 1421 1419 1419 1421 1426 1432 1436 1438 1443 1449 1451 1451 1453 1455 1459 1467 1476 1480 1473 1469 1477 1468 1470 1475 1482 1463 1455 1438 1426 1425 1420 1418 1416 1411 1404 1400
1438 1439 1440 1442 1439 1438 1434 1434 1428 1427 1424 1424 1429 1430 1431 1437 1440 1441 1448 1454 1454 1456 1458 1462 1472 1466 1466 1464 1464 1467 1466 1465 1468 1460 1466 1435 1434 1424 1421 1417 1413 1411 1408 1405 1401
1442 1442 1440 1438 1437 1436 1436 1435 1432 1431 1428 1429 1431 1432 1433 1437 1439 1440 1445 1451 1454 1458 1460 1463 1475 1475 1479 1459 1461 1464 1457 1455 1455 1451 1450 1443 1430 1421 1416 1413 1409 1407 1403 1400 1399
1442 1442 1442 1437 1437 1436 1435 1434 1433 1431 1432 1433 1433 1436 1440 1443 1441 1442 1444 1447 1449 1455 1457 1462 1468 1484 1477 1455 1457 1457 1443 1443 1439 1435 1434 1432 1421 1415 1412 1409 1411 1408 1404 1399 1396